Location: Wyoming Skies Observatory
(43.6910°N, 108.3105°W)
Time: 04:38:02
(UTC-06:00)

Daily predictions for brighter satellites

Satellite Brightness Start Highest point End
(mag) Time Altitude Azimuth Time Altitude Azimuth Time Altitude Azimuth
Cosmos 1607 4.1 00:07:18 48° SE 00:08:00 50° ESE 00:13:59 10° NE
Lacrosse 4 Rocket 2.6 00:07:36 26° WSW 00:09:14 38° NW 00:13:05 10° NNE
SL-8 R/B 4.1 00:10:19 10° WNW 00:15:06 60° NNE 00:17:23 30° E
Terra 3.5 00:14:06 20° WSW 00:15:19 22° W 00:19:01 10° NW
Cosmos 1340 3.4 00:16:32 45° NE 00:16:32 45° NE 00:19:26 10° NNE
COSMOS 2406 3.1 00:14:45 57° S 00:15:58 81° ESE 00:21:44 10° NNE
COSMOS 2487 4.1 00:19:20 28° NE 00:19:20 28° NE 00:21:22 10° NNE
ALOS 2 3.0 00:19:23 51° E 00:19:32 51° ENE 00:23:49 10° N
Cosmos 1689 Rocket 4.0 00:24:37 30° NNE 00:24:37 30° NNE 00:26:39 10° N
Cosmos 1140 Rocket 3.8 00:29:33 46° SW 00:30:54 63° WNW 00:36:08 10° NNE
Cosmos 1707 3.2 00:33:07 59° NNE 00:33:07 59° NNE 00:36:24 10° N
Cosmos 1408 Rocket 4.3 00:34:50 43° ENE 00:34:50 43° ENE 00:38:46 10° NNE
SL-27 R/B 4.2 00:37:01 26° WNW 00:37:01 26° WNW 00:39:44 10° N
Cosmos 1092 Rocket 4.3 00:37:34 41° SW 00:39:40 61° W 00:45:55 10° N
Cosmos 2082 Rocket 4.1 00:43:09 16° E 00:43:09 16° E 00:46:22 10° ENE
Meteor 1-24 Rocket 3.8 00:50:12 59° SSE 00:51:15 72° E 00:57:12 10° NNE
CZ-4C R/B 2.6 00:53:07 45° ESE 00:53:07 45° ESE 00:58:32 10° NE
S3M 4.0 00:48:58 10° N 00:55:15 73° E 00:56:39 54° SE
Cosmos 1655 Rocket 3.9 00:54:28 55° SSW 00:55:58 84° W 01:02:17 10° N
BREEZE-M DEB (TANK) 4.4 00:57:23 23° NE 00:57:23 23° NE 00:59:42 10° ENE
CZ-4B R/B 2.6 00:58:03 42° NW 00:58:03 42° NW 01:00:43 10° NNW
Cosmos 1743 Rocket 4.5 01:00:05 38° E 01:00:05 38° E 01:03:53 10° NNE
Meteor 2-5 Rocket 4.1 00:59:12 45° SW 01:00:40 58° WNW 01:06:25 10° N
ATLAS 3B R/B 4.3 00:56:30 10° WSW 01:03:27 36° NW 01:10:14 10° NNE
NOSS 3-2 (A) 3.4 01:03:41 58° SSE 01:04:35 65° ESE 01:11:10 10° NE
Cosmos 1943 Rocket 3.7 01:00:52 10° NW 01:05:01 22° W 01:05:17 22° WSW
ISS -0.8 01:08:05 11° WNW 01:10:36 23° NNW 01:13:18 10° NE
Cosmos 1763 Rocket 4.4 01:07:48 10° N 01:12:54 44° ENE 01:14:25 35° ESE
Cosmos 1766 Rocket 3.6 01:14:07 76° NW 01:14:07 76° NW 01:18:27 10° N
Cosmos 1428 Rocket 4.4 01:13:11 60° S 01:14:26 90° E 01:20:39 10° N
Cosmos 1867 4.4 01:16:04 36° ESE 01:16:04 36° ESE 01:20:47 10° NE
Helios 1A Rocket 3.2 01:11:54 10° N 01:15:32 64° NNW 01:15:32 64° NNW
Meteor 2-1 Rocket 4.4 01:11:43 10° NNW 01:17:33 61° W 01:18:27 54° SW
Cosmos 1500 Rocket 4.4 01:18:29 40° E 01:18:29 40° E 01:22:13 10° NNE
Cosmos 1378 3.9 01:21:53 53° N 01:21:53 53° N 01:24:53 10° N
CZ-2C R/B 3.9 01:20:27 37° ESE 01:22:04 48° ENE 01:27:30 10° N
Cosmos 1328 Rocket 3.6 01:21:38 10° N 01:25:48 75° NE 01:25:48 75° NE
Cosmos 2228 Rocket 3.1 01:24:26 10° NNW 01:28:31 70° NW 01:28:31 70° NW
Cosmos 2221 4.0 01:28:58 10° NNW 01:32:11 27° WNW 01:32:11 27° WNW
H-2A R/B 4.1 01:30:03 10° NNW 01:33:09 23° WNW 01:33:16 23° WNW
CZ-2C R/B 2.6 01:28:31 10° NNE 01:34:07 78° ESE 01:34:55 65° SSE
Lacrosse 5 rocket 4.5 01:31:43 10° NNW 01:34:23 16° NNE 01:37:07 10° NE
USA 215 4.2 01:29:27 10° ENE 01:35:02 29° SE 01:35:14 29° SE
Cosmos 1515 Rocket 3.6 01:31:30 10° N 01:35:52 77° ENE 01:35:52 77° ENE
Cosmos 1076 Rocket 4.4 01:36:21 39° WNW 01:36:21 39° WNW 01:40:13 10° N
Cosmos 1503 Rocket 4.5 01:37:07 46° ESE 01:37:32 47° ESE 01:42:39 10° NNE
Meteor 2-20 4.4 01:36:52 57° S 01:38:12 82° E 01:44:24 10° N
Cosmos 2369 3.6 01:34:42 10° NNW 01:40:24 86° WSW 01:41:21 63° SSE
Genesis I 4.4 01:39:51 10° NNW 01:43:37 38° NE 01:44:19 35° ENE
In-Cosmos 22 4.0 01:43:48 65° S 01:44:39 87° E 01:50:20 10° N
Cosmos 405 Rocket 3.7 01:46:56 40° NW 01:46:56 40° NW 01:50:02 10° N
Cosmos 2344 3.7 01:48:01 44° S 01:50:38 68° ESE 01:59:19 10° NE
Cosmos 841 Rocket 3.4 01:45:21 10° NNW 01:50:38 82° ENE 01:51:32 62° SE
Cosmos 1908 3.7 01:49:05 10° N 01:52:28 58° NE 01:52:28 58° NE
Lacrosse 5 3.3 01:49:16 10° NW 01:53:58 37° NNE 01:58:39 10° E
Cosmos 1437 Rocket 3.2 01:56:47 10° N 02:00:32 55° ENE 02:00:32 55° ENE
Cosmos 2278 3.9 01:58:23 10° NW 02:03:49 49° WSW 02:04:07 48° WSW
Cosmos 405 4.0 02:03:59 10° N 02:07:17 40° ENE 02:07:17 40° ENE
Nadezhda 2 Rocket 4.5 02:06:22 50° S 02:08:12 89° E 02:14:32 10° N
Cosmos 1980 Rocket 3.2 02:03:01 10° NNW 02:08:21 42° ENE 02:12:47 14° SE
Cosmos 1805 Rocket 4.5 02:08:20 37° ESE 02:08:53 38° E 02:12:59 10° NNE
NOSS 3-2 (C) 3.8 02:07:00 36° WSW 02:09:34 63° NW 02:16:18 10° NNE
CENTAUR R/B 3.1 02:11:26 35° SE 02:12:53 40° ESE 02:19:06 10° NE
Cosmos 1300 4.0 02:09:42 10° N 02:13:11 32° ENE 02:13:48 30° E
Cosmos 1441 Rocket 3.3 02:13:44 79° NNE 02:13:44 79° NNE 02:17:29 10° N
ERS-2 3.8 02:13:53 10° NE 02:17:00 25° E 02:17:04 25° E
Cosmos 1633 Rocket 4.4 02:17:42 27° ESE 02:18:42 30° E 02:22:35 10° NNE
Cosmos 1707 Rocket 4.1 02:17:10 10° N 02:21:27 52° ENE 02:22:22 43° ESE
Cosmos 836 Rocket 4.4 02:17:18 10° NNW 02:22:29 70° WSW 02:23:16 60° SSW
Cosmos 1818 4.2 02:18:53 10° NW 02:23:37 39° WSW 02:23:37 39° WSW
Cosmos 1666 Rocket 4.3 02:24:51 38° ESE 02:25:34 42° E 02:29:40 10° NNE
Cosmos 2082 Rocket 2.2 02:24:59 50° SW 02:26:28 76° WNW 02:32:10 10° NNE
Cosmos 2315 Rocket 4.1 02:22:19 10° NNW 02:28:33 62° W 02:30:21 44° SSW
Cosmos 1697 Rocket 2.6 02:24:14 10° NNW 02:29:57 86° WSW 02:32:00 42° SSE
Aureole 1 Rocket 3.4 02:25:54 10° NNW 02:30:20 84° ENE 02:32:16 41° SSE
Abrixas 4.2 02:35:25 29° ENE 02:35:25 29° ENE 02:37:06 10° ENE
ASTEX 1 3.4 02:31:06 10° N 02:36:03 68° W 02:37:01 54° SW
Cosmos 1833 Rocket 2.7 02:38:11 47° SW 02:39:51 77° WNW 02:45:32 10° NNE
CZ-4C R/B 3.5 02:38:16 19° W 02:41:34 35° NW 02:47:14 10° NNE
Cosmos 1151 Rocket 3.9 02:37:58 10° NNW 02:41:38 34° W 02:41:38 34° W
Landsat 4 3.7 02:45:41 62° W 02:45:41 62° W 02:49:11 10° NNW
Cosmos 1745 Rocket 4.2 02:42:40 34° SSE 02:45:33 71° E 02:51:53 10° NNE
Cosmos 1328 3.9 02:45:50 59° W 02:46:00 60° W 02:49:58 10° N
USA 161 4.3 02:45:54 10° E 02:46:29 11° ENE 02:47:11 10° NE
Cosmos 1674 3.7 02:47:35 33° WNW 02:47:35 33° WNW 02:50:51 10° N
Meteor 1-27 4.3 02:41:51 10° N 02:47:45 86° E 02:50:25 34° SSE
ISS -0.7 02:45:12 10° NW 02:47:49 22° N 02:50:26 10° ENE
SL-14 R/B 3.4 02:50:20 57° SE 02:50:48 63° E 02:54:38 10° NNE
Nadezhda 1 Rocket 4.1 02:46:18 10° N 02:52:29 73° E 02:56:06 26° SSE
Cosmos 2151 3.6 02:53:03 39° W 02:53:29 40° WNW 02:57:32 10° N
Cosmos 1726 2.1 02:50:14 10° N 02:53:56 75° E 02:54:23 64° SE
Iridium 2 4.1 02:55:35 47° W 02:55:36 47° W 02:59:18 10° N
PSLV R/B 3.8 02:51:43 10° N 02:56:20 65° WNW 02:57:22 49° SW
Cosmos 2058 2.9 02:55:58 57° WSW 02:56:31 64° W 03:00:41 10° N
Sich 1 3.0 03:00:35 52° S 03:01:38 88° W 03:06:06 10° N
CZ-2C R/B 4.4 03:01:31 24° WSW 03:02:10 25° W 03:06:44 10° NW
Cosmos 1703 3.8 03:02:49 38° SE 03:03:58 52° E 03:07:50 10° NNE
Cosmos 540 Rocket 3.5 02:59:19 10° NNW 03:04:25 60° WSW 03:06:01 41° SSW
SL-16 R/B 3.2 03:01:50 10° NNW 03:07:20 47° ENE 03:12:46 10° SE
Cosmos 1656 4.5 03:04:48 10° NW 03:09:47 32° WSW 03:10:31 31° WSW
Cosmos 1862 Rocket 4.3 03:09:52 10° N 03:14:16 51° ENE 03:17:26 18° SSE
Cosmos 1626 3.6 03:12:43 21° SE 03:14:28 31° E 03:17:49 10° NNE
Lacrosse 5 rocket 2.8 03:10:30 10° NW 03:14:38 41° NE 03:18:55 10° ESE
Cosmos 332 Rocket 3.7 03:11:30 10° NNW 03:16:16 64° WSW 03:18:07 35° S
IRS-P3 4.1 03:12:21 10° N 03:17:40 70° WNW 03:20:01 34° SSW
SL-08 R/B 3.3 03:16:03 34° S 03:18:07 71° WSW 03:23:02 10° NNW
USA 215 3.3 03:11:54 10° NE 03:18:27 82° NW 03:22:34 25° WSW
Cosmos 1271 Rocket 3.2 03:15:54 10° N 03:19:39 55° ENE 03:21:46 23° SSE
Cosmos 2322 Rocket 2.6 03:15:36 10° NNW 03:21:13 64° ENE 03:26:47 10° SE
Resurs 1-4 Rocket 3.7 03:19:11 10° NE 03:23:48 29° E 03:28:22 10° SSE
Cosmos 1437 3.8 03:27:04 32° W 03:27:16 33° WNW 03:30:21 10° N
OAO 3 Rocket 4.3 03:34:30 25° S 03:34:45 25° S 03:38:34 10° ESE
Cosmos 2242 Rocket 4.1 03:31:22 10° NNW 03:35:31 41° W 03:36:48 32° SW
Lacrosse 5 1.9 03:32:11 10° NW 03:37:05 51° SW 03:41:57 10° SSE
Cosmos 968 Rocket 3.5 03:38:52 29° SSW 03:41:31 72° WNW 03:46:40 10° NNE
Cosmos 2181 Rocket 4.0 03:39:45 10° N 03:45:56 85° E 03:52:09 10° S
Spot 4 Rocket 4.0 03:43:21 10° NNE 03:48:32 87° W 03:51:58 22° SSW
Cosmos 1300 4.5 03:46:07 10° NW 03:48:41 17° W 03:48:50 17° W
deb Kosmos-1763 4.1 03:48:25 31° SSW 03:50:07 77° WNW 03:54:00 10° NNE
ERS-2 3.7 03:47:43 10° NNW 03:50:43 23° WNW 03:51:56 20° W
Cosmos 1538 Rocket 4.3 03:46:57 10° NNW 03:51:55 45° WSW 03:55:21 19° SSW
Cosmos 1980 Rocket 3.0 03:47:19 10° NW 03:52:10 30° WSW 03:54:28 23° SW
Cosmos 2360 Rocket 3.4 03:47:46 10° NNW 03:53:09 43° ENE 03:58:29 10° SE
BREEZE-M DEB (TANK) 3.2 03:49:04 10° WNW 03:53:29 41° N 03:55:44 10° E
USA 129 4.3 03:55:36 13° NNE 03:55:36 13° NNE 03:55:57 10° NNE
Cosmos 923 Rocket 4.0 03:50:20 10° NNW 03:55:39 89° ENE 04:00:53 10° SSE
Cosmos 1633 Rocket 4.4 03:54:47 20° WSW 03:56:30 25° WNW 04:00:11 10° NNW
CENTAUR R/B 3.3 03:58:36 16° WSW 04:03:28 45° NW 04:10:12 10° NNE
CZ-2D R/B 2.4 03:58:55 10° NNE 04:04:08 64° ESE 04:09:17 10° S
Cosmos 1680 Rocket 3.5 04:00:35 10° NNW 04:05:49 85° ENE 04:11:02 10° SSE
Cosmos 371 Rocket 4.1 04:04:22 10° NW 04:08:37 31° W 04:11:14 19° SSW
Cosmos 1703 Rocket 3.7 04:04:34 10° N 04:08:58 77° E 04:13:18 10° SSE
Cosmos 1346 3.3 04:07:37 19° S 04:09:41 68° E 04:12:45 10° NNE
Abrixas 4.0 04:07:28 10° WNW 04:10:19 35° N 04:13:12 10° ENE
Cosmos 1777 Rocket 4.1 04:07:33 19° SW 04:11:18 64° WNW 04:16:35 10° NNE
Cosmos 2082 Rocket 4.3 04:08:26 10° WNW 04:11:34 15° NW 04:14:45 10° N
ADEOS 4.1 04:08:16 10° N 04:13:13 44° WNW 04:16:55 17° SW
SL-16 R/B 2.5 04:07:55 10° S 04:14:10 75° WSW 04:20:28 10° NNW
Cosmos 1455 3.0 04:13:01 10° NNW 04:16:28 33° W 04:18:34 19° SW
USA 161 3.0 04:17:10 16° W 04:17:10 16° W 04:18:26 10° NW
Cosmos 773 Rocket 4.3 04:14:14 10° NNW 04:19:07 45° WSW 04:23:59 10° S
IRS-1D 3.6 04:14:28 10° N 04:19:50 75° WNW 04:24:41 12° SSW
Meteor 1-4 Rocket 3.9 04:17:47 10° NW 04:20:53 25° W 04:22:38 18° SW
ARIANE 5 R/B 2.6 04:16:43 10° N 04:21:47 63° WNW 04:26:09 14° SSW
Cosmos 2074 Rocket 4.1 04:16:16 10° S 04:22:28 79° E 04:28:45 10° N
ATLAS CENTAUR R/B 3.8 04:19:51 10° NNW 04:24:07 31° NE 04:28:04 10° ESE
ISS -2.7 04:21:30 10° NW 04:24:44 60° NNE 04:27:57 10° ESE
Cosmos 1869 4.1 04:21:33 10° NNW 04:25:07 33° W 04:27:54 15° SSW
Cosmos 2184 Rocket 4.2 04:18:53 10° S 04:25:15 80° E 04:31:38 10° N
UNKNOWN OBJECT B 2.8 04:22:48 10° NNE 04:26:36 79° E 04:30:27 10° S
Cosmos 304 Rocket 3.7 04:22:43 10° NNW 04:27:33 72° WSW 04:32:20 10° S
MTI 4.0 04:27:37 10° S 04:30:53 52° W 04:34:12 10° NNW
COSMOS 2428 4.0 04:26:35 10° NNW 04:32:01 44° ENE 04:37:25 10° SE
Cosmos 2292 Rocket 3.9 04:32:19 16° SW 04:34:11 29° WNW 04:37:12 10° NNW
Cosmos 1833 4.4 04:28:41 10° SSW 04:34:26 80° ESE 04:40:13 10° NNE
Cosmos 2327 Rocket 4.5 04:29:53 10° S 04:35:59 83° W 04:42:14 10° N
ATLAS 5 CENTAUR R/B 2.0 04:32:01 12° SSW 04:36:30 75° ESE 04:41:47 10° NE
CZ-4B R/B 4.4 04:34:09 10° NNE 04:37:49 35° E 04:41:39 10° SSE
Cosmos 1898 Rocket 4.3 04:33:30 10° S 04:38:29 49° ESE 04:43:28 10° NNE
Okean O Rocket 2.0 04:35:24 10° NNE 04:39:50 67° ESE 04:44:13 10° S
Okean 1-7 3.0 04:40:09 10° NNW 04:44:34 71° W 04:48:53 10° S
Cosmos 1933 4.0 04:42:45 10° NNW 04:46:29 37° W 04:50:11 10° SSW
Cosmos 2150 Rocket 4.5 04:42:27 10° S 04:47:39 63° ESE 04:52:58 10° NNE
Cosmos 1626 4.0 04:47:26 10° WSW 04:49:59 17° WNW 04:52:32 10° NNW
Meteor 2-3 Rocket 4.1 04:45:14 10° S 04:50:58 73° E 04:56:46 10° NNE
SL-16 R/B 3.1 04:46:28 10° NW 04:51:09 27° WSW 04:55:49 10° SSW
Lacrosse 5 rocket 2.1 04:49:51 10° WNW 04:53:54 36° SW 04:58:04 10° SSE
PSLV R/B 3.8 04:50:17 10° NNE 04:54:11 88° WNW 04:58:11 10° SSW
SL-24 DEB 4.2 04:51:42 10° N 04:56:23 77° W 05:01:00 10° SSW
CZ-2C R/B 3.8 04:53:53 10° S 04:58:16 58° W 05:02:47 10° NNW
USA 215 4.5 04:55:07 10° NE 05:00:58 36° NNW 05:06:48 10° W
Okean-O 4.0 04:58:31 10° NNE 05:02:44 41° E 05:06:55 10° S
Resurs 1-4 Rocket 2.8 04:58:48 10° N 05:03:42 39° WNW 05:08:36 10° SW
Cosmos 2322 Rocket 3.5 05:00:51 10° NW 05:04:41 19° W 05:08:31 10° SW
CZ-3 Stage 3 4.0 05:04:16 10° WSW 05:07:23 14° SSW 05:09:22 10° S
